Torna al catalogo

SATURNIN-1

AttivoMeteoSSO
NORAD 62615·PAYLOAD·🇺🇸 United States

Lanciato Jan 14, 2025 da Vandenberg Space Force Base

Loading…

Prossimi Passaggi (prossime 24 ore)

TLE

AggiornatoSource: Space-Track

Epoca: Sep 14, 2026, 16:52 UTC

1 62615U 25009G   26257.70319389  .00005202  00000-0  20050-3 0  9997
2 62615  97.3884 336.7109 0006480  26.9772 333.1803 15.26748612 92454

Traccia SATURNIN-1 in tempo reale con AllMySat

Download on the App Store